Location: Unspecified
(51.0000°N, 12.0000°E)
Time: 20:33:55
(UTC+01:00)

N. Korean satellite - Visible Passes

Search period start: 25 November 2020 00:00
Search period end: 05 December 2020 00:00
Orbit: 452 x 504 km, 97.2° (Epoch: 25 November)

Date Brightness Start Highest point End Pass type
(mag) Time Alt. Az. Time Alt. Az. Time Alt. Az.
25 Nov 9.9 04:39:44 10° ENE 04:41:29 13° E 04:43:14 10° ESE visible
25 Nov 6.5 06:11:40 10° N 06:15:10 58° WNW 06:18:43 10° SSW visible
25 Nov 6.7 16:51:25 10° S 16:54:48 73° WSW 16:58:15 10° NNW visible
26 Nov 6.8 05:45:22 10° NNE 05:48:55 69° ESE 05:52:31 10° S visible
26 Nov 9.9 18:00:36 10° WSW 18:02:15 13° W 18:03:53 10° WNW visible
27 Nov 8.3 05:19:16 10° NNE 05:22:35 34° E 05:25:54 10° SSE visible
27 Nov 7.8 06:52:57 10° NNW 06:55:46 22° WNW 06:58:36 10° WSW visible
27 Nov 9.1 17:32:54 10° SSW 17:35:44 24° W 17:38:36 10° NW visible
28 Nov 9.4 04:53:32 10° NE 04:56:08 19° E 04:58:44 10° SE visible
28 Nov 7.0 06:26:16 10° N 06:29:38 40° WNW 06:33:02 10° SW visible
28 Nov 7.6 17:06:00 10° S 17:09:18 47° W 17:12:41 10° NNW visible
29 Nov 6.4 05:59:48 10° N 06:03:25 80° WNW 06:07:03 10° SSW visible
30 Nov 7.5 05:33:34 10° NNE 05:37:06 50° E 05:40:39 10° S visible
30 Nov 8.1 07:07:47 10° NNW 07:10:06 17° WNW 07:12:27 10° WSW visible
30 Nov 9.6 17:47:57 10° SW 17:50:17 17° W 17:52:39 10° NW visible
01 Dec 8.8 05:07:35 10° NE 05:10:41 26° E 05:13:48 10° SSE visible
01 Dec 7.4 06:40:52 10° N 06:44:01 29° WNW 06:47:11 10° SW visible
01 Dec 8.5 17:20:41 10° SSW 17:23:47 32° W 17:26:58 10° NNW visible
02 Dec 9.8 04:42:07 10° NE 04:44:10 14° E 04:46:14 10° SE visible
02 Dec 6.6 06:14:16 10° N 06:17:49 54° WNW 06:21:24 10° SSW visible
02 Dec 6.9 16:53:59 10° S 16:57:23 67° WSW 17:00:53 10° NNW visible
03 Dec 6.7 05:47:53 10° NNE 05:51:32 75° ESE 05:55:12 10° S visible
03 Dec 9.9 18:03:21 10° WSW 18:04:49 12° W 18:06:17 10° WNW visible
04 Dec 8.1 05:21:44 10° NNE 05:25:09 37° E 05:28:35 10° SSE visible
04 Dec 7.8 06:55:30 10° NNW 06:58:18 21° WNW 07:01:07 10° WSW visible
04 Dec 9.2 17:35:27 10° SSW 17:38:15 23° W 17:41:05 10° NW visible
